DW6016 Weather Reports


Display with metric or nautical units.
time (UTC)temp
F
wind
direction
speed
MPH
gust
MPH
rain 1hr
in
rain 24hr
in
rain mn
in
humidity
%
barometer
mb
20260506224318 68 188 0.0 1.0 0.00 0.00 0.00 68 1021.0
20260506223814 68 307 1.0 2.0 0.00 0.00 0.00 68 1021.1
20260506223309 67 312 0.0 1.0 0.00 0.00 0.00 68 1021.2
20260506222807 67 321 0.0 0.0 0.00 0.00 0.00 69 1021.2
20260506222305 67 150 2.0 3.0 0.00 0.00 0.00 69 1021.2
20260506221800 67 336 1.0 1.0 0.00 0.00 0.00 70 1021.1
20260506221258 66 305 0.0 1.0 0.00 0.00 0.00 72 1021.2
20260506220755 67 301 2.0 2.0 0.00 0.00 0.00 71 1021.3
20260506220249 67 310 0.0 1.0 0.00 0.00 0.00 73 1021.5
20260506215747 67 304 1.0 1.0 0.00 0.00 0.00 72 1021.3
20260506215243 68 308 0.0 0.0 0.00 0.00 0.00 71 1021.2
20260506214739 68 309 0.0 1.0 0.00 0.00 0.00 73 1021.2
20260506214236 67 306 1.0 1.0 0.00 0.00 0.00 71 1021.0
20260506213735 66 351 1.0 1.0 0.00 0.00 0.00 72 1021.2
20260506213231 66 344 0.0 1.0 0.00 0.00 0.00 73 1021.4
20260506212729 65 302 1.0 1.0 0.00 0.00 0.00 73 1021.5
20260506212224 65 337 1.0 1.0 0.00 0.00 0.00 73 1021.5
20260506211719 65 358 0.0 0.0 0.00 0.00 0.00 76 1021.6
20260506211216 65 24 0.0 1.0 0.00 0.00 0.00 75 1021.9
20260506210713 65 217 1.0 2.0 0.00 0.00 0.00 75 1021.6
20260506210210 64 299 0.0 1.0 0.00 0.00 0.00 75 1021.6
20260506205707 66 306 0.0 0.0 0.00 0.00 0.00 77 1022.0
20260506205202 65 232 1.0 2.0 0.00 0.00 0.00 73 1021.9
20260506204659 65 340 0.0 1.0 0.00 0.00 0.00 74 1021.8
20260506204156 66 299 0.0 0.0 0.00 0.00 0.00 72 1021.8
20260506203655 66 334 1.0 1.0 0.00 0.00 0.00 74 1021.8
20260506203151 65 330 0.0 1.0 0.00 0.00 0.00 77 1021.8
20260506202649 65 92 2.0 2.0 0.00 0.00 0.00 75 1021.8
20260506202145 65 313 0.0 1.0 0.00 0.00 0.00 76 1021.8
20260506201642 66 313 3.0 3.0 0.00 0.00 0.00 73 1021.8
20260506201138 67 310 0.0 0.0 0.00 0.00 0.00 73 1021.9
20260506200635 66 310 0.0 0.0 0.00 0.00 0.00 74 1021.8
20260506200132 65 305 0.0 0.0 0.00 0.00 0.00 75 1021.9
20260506195629 64 300 0.0 0.0 0.00 0.00 0.00 77 1021.9
20260506195125 65 307 1.0 1.0 0.00 0.00 0.00 76 1022.1
20260506194623 64 302 0.0 1.0 0.00 0.00 0.00 76 1022.1
20260506194119 64 316 0.0 0.0 0.00 0.00 0.00 77 1022.2
20260506193617 63 300 1.0 2.0 0.00 0.00 0.00 78 1022.2
20260506193114 63 302 0.0 0.0 0.00 0.00 0.00 79 1022.3
20260506192611 63 310 1.0 2.0 0.00 0.00 0.00 78 1022.1
20260506192106 63 304 0.0 0.0 0.00 0.00 0.00 78 1022.2
20260506191603 62 310 1.0 1.0 0.00 0.00 0.00 79 1022.0
20260506191059 62 326 0.0 0.0 0.00 0.00 0.00 81 1022.0
20260506190557 62 324 0.0 0.0 0.00 0.00 0.00 79 1022.1
20260506190053 62 316 1.0 2.0 0.00 0.00 0.00 82 1022.2
20260506185551 61 344 1.0 1.0 0.00 0.00 0.00 81 1022.1
20260506185047 62 0 0.0 0.0 0.00 0.00 0.00 81 1022.0
20260506184545 62 297 0.0 1.0 0.00 0.00 0.00 82 1022.1
20260506184042 62 349 1.0 1.0 0.00 0.00 0.00 81 1022.1
20260506183537 62 300 0.0 0.0 0.00 0.00 0.00 81 1022.0
20260506183034 61 309 1.0 1.0 0.00 0.00 0.00 83 1022.0
20260506182532 61 318 3.0 3.0 0.00 0.00 0.00 82 1022.0
20260506182029 61 302 0.0 0.0 0.00 0.00 0.00 83 1022.1
20260506181527 61 290 0.0 1.0 0.00 0.00 0.00 83 1022.0
20260506181023 61 310 0.0 0.0 0.00 0.00 0.00 83 1022.0
20260506180520 60 306 0.0 0.0 0.00 0.00 0.00 84 1022.2
20260506180016 60 325 1.0 1.0 0.00 0.00 0.00 85 1022.0
20260506175513 59 331 3.0 3.0 0.00 0.00 0.00 85 1022.2
20260506175009 59 314 0.0 1.0 0.00 0.00 0.00 85 1021.8
20260506174508 59 307 1.0 2.0 0.00 0.00 0.00 85 1022.0
20260506174004 59 303 1.0 2.0 0.00 0.00 0.00 84 1021.9
20260506173502 59 312 1.0 1.0 0.00 0.00 0.00 85 1021.9
20260506172958 59 318 0.0 0.0 0.00 0.00 0.00 86 1021.8
20260506172456 59 317 0.0 0.0 0.00 0.00 0.00 85 1021.9
20260506171952 59 314 0.0 0.0 0.00 0.00 0.00 84 1021.9
20260506171449 59 309 1.0 1.0 0.00 0.00 0.00 85 1022.0
20260506170947 59 307 0.0 0.0 0.00 0.00 0.00 85 1021.8
20260506170443 58 300 0.0 0.0 0.00 0.00 0.00 86 1021.9
20260506165936 58 305 0.0 1.0 0.00 0.00 0.00 86 1022.0
20260506165435 59 309 1.0 1.0 0.00 0.00 0.00 85 1022.0
20260506164930 59 303 0.0 0.0 0.00 0.00 0.00 85 1021.8
20260506164427 59 301 0.0 0.0 0.00 0.00 0.00 85 1021.9
20260506163926 59 311 1.0 1.0 0.00 0.00 0.00 85 1021.8
20260506163425 59 313 0.0 0.0 0.00 0.00 0.00 85 1021.9
20260506162915 59 310 0.0 0.0 0.00 0.00 0.00 84 1021.8
20260506162413 59 308 1.0 1.0 0.00 0.00 0.00 84 1021.5
20260506161910 58 299 0.0 0.0 0.00 0.00 0.00 85 1021.5
20260506161408 58 325 0.0 1.0 0.00 0.00 0.00 85 1021.8
20260506160905 58 313 0.0 0.0 0.00 0.00 0.00 84 1021.8
20260506160402 58 326 0.0 0.0 0.00 0.00 0.00 85 1021.2
20260506155900 59 304 0.0 0.0 0.00 0.00 0.00 84 1021.3
20260506155357 59 311 0.0 0.0 0.00 0.00 0.00 84 1021.3
20260506153519 56 278 1.0 1.0 0.00 0.00 0.00 88 1021.3
20260506153017 56 5 1.0 1.0 0.00 0.00 0.00 88 1022.0
20260506152513 56 304 0.0 1.0 0.00 0.00 0.00 88 1021.8
20260506152012 57 328 0.0 1.0 0.00 0.00 0.00 89 1021.9
20260506151509 57 309 0.0 0.0 0.00 0.00 0.00 89 1021.9
20260506151006 57 307 0.0 1.0 0.00 0.00 0.00 88 1021.9
20260506150502 57 308 0.0 0.0 0.00 0.00 0.00 88 1021.8
20260506145959 57 316 0.0 0.0 0.00 0.00 0.00 88 1021.8
20260506145455 57 313 0.0 0.0 0.00 0.00 0.00 88 1021.5
20260506144953 57 293 1.0 1.0 0.00 0.00 0.00 88 1021.4
20260506144450 57 306 0.0 0.0 0.00 0.00 0.00 89 1021.8
20260506143948 57 308 0.0 0.0 0.00 0.00 0.00 89 1021.6
20260506143444 57 291 0.0 0.0 0.00 0.00 0.00 89 1021.1
20260506142943 57 292 0.0 0.0 0.00 0.00 0.00 89 1021.3
20260506142441 57 306 1.0 1.0 0.00 0.00 0.00 88 1021.1
20260506141939 57 354 1.0 1.0 0.00 0.00 0.00 88 1020.9
20260506141436 57 311 0.0 0.0 0.00 0.00 0.00 89 1020.8
20260506140935 57 310 0.0 0.0 0.00 0.00 0.00 89 1020.8
20260506140431 57 310 0.0 0.0 0.00 0.00 0.00 89 1021.1
20260506135928 57 318 0.0 0.0 0.00 0.00 0.00 90 1020.8
20260506135425 57 318 0.0 0.0 0.00 0.00 0.00 90 1020.9
20260506134922 57 318 0.0 0.0 0.00 0.00 0.00 90 1020.7
20260506134417 56 317 0.0 0.0 0.00 0.00 0.00 90 1020.9
20260506133915 56 317 0.0 0.0 0.00 0.00 0.00 90 1020.5
20260506133411 56 317 0.0 0.0 0.00 0.00 0.00 90 1020.5
20260506132908 56 317 0.0 0.0 0.00 0.00 0.00 90 1020.6
20260506132405 56 318 0.0 0.0 0.00 0.00 0.00 90 1020.7
20260506131904 56 318 1.0 1.0 0.00 0.00 0.00 90 1020.7
20260506131359 56 316 0.0 0.0 0.00 0.00 0.00 91 1020.5
20260506130856 56 304 0.0 0.0 0.00 0.00 0.00 90 1020.5
20260506130352 56 304 0.0 0.0 0.00 0.00 0.00 90 1020.5
20260506125851 56 304 0.0 0.0 0.00 0.00 0.00 90 1020.4
20260506125349 56 304 0.0 0.0 0.00 0.00 0.00 90 1020.4
20260506124847 56 303 0.0 0.0 0.00 0.00 0.00 90 1020.4
20260506124343 56 305 0.0 0.0 0.00 0.00 0.00 90 1020.2
20260506123841 56 318 0.0 0.0 0.00 0.00 0.00 90 1020.3
20260506123339 56 301 0.0 0.0 0.00 0.00 0.00 90 1020.4
20260506122836 56 301 0.0 0.0 0.00 0.00 0.00 90 1020.2
20260506122333 56 302 0.0 0.0 0.00 0.00 0.00 89 1020.5
20260506121831 56 303 0.0 0.0 0.00 0.00 0.00 89 1020.2
20260506121328 56 300 0.0 0.0 0.00 0.00 0.00 89 1020.5
20260506120825 56 298 0.0 0.0 0.00 0.00 0.00 89 1020.3
20260506120323 56 303 0.0 0.0 0.00 0.00 0.00 89 1020.4
20260506115820 56 301 0.0 0.0 0.00 0.00 0.00 89 1020.1
20260506115318 56 301 0.0 0.0 0.00 0.00 0.00 89 1020.0
20260506114816 57 304 0.0 0.0 0.00 0.00 0.00 88 1019.9
20260506114314 57 323 1.0 1.0 0.00 0.00 0.00 88 1019.9
20260506113812 57 317 0.0 0.0 0.00 0.00 0.00 88 1019.8
20260506113309 57 299 0.0 1.0 0.00 0.00 0.00 88 1019.9
20260506112805 57 318 0.0 0.0 0.00 0.00 0.00 88 1020.0
20260506112305 57 306 0.0 0.0 0.00 0.00 0.00 88 1020.0
20260506111800 57 306 0.0 0.0 0.00 0.00 0.00 87 1019.8
20260506111258 57 299 0.0 1.0 0.00 0.00 0.00 87 1019.8
20260506110755 57 305 0.0 0.0 0.00 0.00 0.00 87 1019.9
20260506110252 57 307 0.0 0.0 0.00 0.00 0.00 87 1019.7
20260506105749 57 292 0.0 0.0 0.00 0.00 0.00 87 1019.4
20260506105246 57 309 0.0 0.0 0.00 0.00 0.00 87 1019.6
20260506104743 57 311 0.0 0.0 0.00 0.00 0.00 87 1019.3
20260506104241 57 283 0.0 1.0 0.00 0.00 0.00 87 1019.3
20260506103738 57 297 0.0 0.0 0.00 0.00 0.00 87 1019.1
20260506103235 57 312 0.0 0.0 0.00 0.00 0.00 87 1018.9
20260506102733 57 299 0.0 0.0 0.00 0.00 0.00 87 1019.3
20260506102231 57 311 0.0 0.0 0.00 0.00 0.00 87 1019.1
20260506101727 57 309 0.0 0.0 0.00 0.00 0.00 87 1018.9
20260506101224 57 307 0.0 0.0 0.00 0.00 0.00 87 1018.8
20260506100722 57 311 0.0 0.0 0.00 0.00 0.00 86 1019.0
20260506100220 57 300 0.0 0.0 0.00 0.00 0.00 87 1018.9
20260506095718 57 294 0.0 1.0 0.00 0.00 0.00 87 1019.0
20260506095215 57 303 0.0 0.0 0.00 0.00 0.00 87 1018.9
20260506094712 57 302 0.0 0.0 0.00 0.00 0.00 86 1018.6
20260506094210 58 299 0.0 0.0 0.00 0.00 0.00 86 1018.8
20260506093708 58 302 0.0 0.0 0.00 0.00 0.00 86 1018.8
20260506093205 58 316 0.0 0.0 0.00 0.00 0.00 86 1018.9
20260506092703 58 317 0.0 0.0 0.00 0.00 0.00 86 1018.9
20260506092200 58 298 0.0 0.0 0.00 0.00 0.00 86 1018.7
20260506091658 58 309 0.0 1.0 0.00 0.00 0.00 86 1018.7
20260506091155 58 301 0.0 0.0 0.00 0.00 0.00 86 1018.7
20260506090653 58 297 0.0 0.0 0.00 0.00 0.00 86 1018.6
20260506090149 58 302 0.0 0.0 0.00 0.00 0.00 86 1018.7
20260506085646 58 306 0.0 0.0 0.00 0.00 0.00 86 1018.7
20260506085142 59 300 0.0 0.0 0.00 0.00 0.00 86 1018.6
20260506084639 59 307 0.0 0.0 0.00 0.00 0.00 86 1018.8
20260506084136 59 301 0.0 0.0 0.00 0.00 0.00 86 1018.5
20260506083632 59 301 0.0 0.0 0.00 0.00 0.00 85 1018.7
20260506083130 59 308 0.0 0.0 0.00 0.00 0.00 85 1018.6
20260506082627 59 296 0.0 0.0 0.00 0.00 0.00 85 1018.6
20260506082122 59 304 0.0 0.0 0.00 0.00 0.00 85 1018.6
20260506081621 59 319 0.0 0.0 0.00 0.00 0.00 85 1018.9
20260506081118 59 312 0.0 0.0 0.00 0.00 0.00 86 1018.6
20260506080616 59 300 0.0 0.0 0.00 0.00 0.00 86 1018.6
20260506080112 59 300 0.0 0.0 0.00 0.00 0.00 86 1018.4
20260506073056 59 313 0.0 0.0 0.00 0.00 0.00 90 1018.0
20260506072552 59 309 0.0 0.0 0.00 0.00 0.00 91 1017.9
20260506072051 59 309 0.0 0.0 0.00 0.00 0.00 91 1018.2
20260506071548 59 308 0.0 0.0 0.00 0.00 0.00 91 1018.2
20260506071045 59 309 0.0 0.0 0.00 0.00 0.00 91 1018.1
20260506070542 59 309 0.0 0.0 0.00 0.00 0.00 91 1018.2
20260506062016 59 309 0.0 0.0 0.00 0.00 0.00 90 1017.9
20260506061512 59 309 0.0 0.0 0.00 0.00 0.00 90 1018.0
20260506061010 59 309 0.0 0.0 0.00 0.00 0.00 90 1018.0
20260506060508 59 309 0.0 0.0 0.00 0.00 0.00 90 1017.9
20260506050937 58 309 0.0 0.0 0.00 0.00 0.00 90 1017.7
20260506050435 58 309 0.0 0.0 0.00 0.00 0.00 91 1017.7
20260506044925 57 309 0.0 0.0 0.00 0.00 0.00 93 1017.7
20260506044424 57 309 0.0 0.0 0.00 0.00 0.00 93 1017.4
20260506043920 57 309 0.0 0.0 0.00 0.00 0.00 93 1017.5
20260506043417 57 309 0.0 0.0 0.00 0.00 0.00 94 1017.3
20260506042915 57 309 0.0 0.0 0.00 0.00 0.00 94 1017.3
20260506042414 56 309 0.0 0.0 0.00 0.00 0.00 94 1017.3
20260506041912 56 309 0.0 0.0 0.00 0.00 0.00 93 1017.2
20260506041409 56 309 0.0 0.0 0.00 0.00 0.00 93 1017.0
20260506040906 56 309 0.0 0.0 0.00 0.00 0.00 93 1017.1
20260506040404 56 309 0.0 0.0 0.00 0.00 0.00 92 1017.0
20260506035859 57 309 0.0 0.0 0.00 0.00 0.00 92 1016.9
20260506035357 57 309 0.0 0.0 0.00 0.00 0.00 91 1016.9
20260506034854 57 309 0.0 0.0 0.00 0.00 0.00 91 1016.9
20260506034351 57 309 0.0 0.0 0.00 0.00 0.00 91 1016.6
20260506033848 57 309 0.0 0.0 0.00 0.00 0.00 90 1016.6
20260506033345 58 309 0.0 0.0 0.00 0.00 0.00 89 1016.6
20260506032842 58 309 0.0 0.0 0.00 0.00 0.00 88 1016.6
20260506032339 58 309 0.0 0.0 0.00 0.00 0.00 87 1016.5
20260506031836 59 309 0.0 0.0 0.00 0.00 0.00 86 1016.5
20260506031333 59 309 0.0 0.0 0.00 0.00 0.00 85 1016.6
20260506030831 59 309 0.0 0.0 0.00 0.00 0.00 84 1016.4
20260506030329 60 309 0.0 0.0 0.00 0.00 0.00 83 1016.4
20260506025825 60 309 0.0 0.0 0.00 0.00 0.00 82 1016.3
20260506025321 61 309 0.0 0.0 0.00 0.00 0.00 82 1016.4
20260506024819 61 309 0.0 0.0 0.00 0.00 0.00 81 1016.2
20260506024315 62 309 0.0 0.0 0.00 0.00 0.00 80 1016.2
20260506023812 62 309 0.0 0.0 0.00 0.00 0.00 79 1016.1
20260506023309 62 309 0.0 0.0 0.00 0.00 0.00 79 1016.4
20260506022805 62 309 0.0 0.0 0.00 0.00 0.00 78 1016.4
20260506022305 63 309 0.0 0.0 0.00 0.00 0.00 77 1016.2
20260506021801 63 309 0.0 0.0 0.00 0.00 0.00 77 1016.4
20260506021258 64 309 0.0 0.0 0.00 0.00 0.00 76 1016.2
20260506020754 64 308 0.0 0.0 0.00 0.00 0.00 74 1016.1
20260506020252 64 309 0.0 0.0 0.00 0.00 0.00 75 1016.4
20260506015750 64 309 0.0 0.0 0.00 0.00 0.00 74 1016.5
20260506015247 66 308 1.0 1.0 0.00 0.00 0.00 72 1016.3
20260506014744 66 311 0.0 0.0 0.00 0.00 0.00 69 1016.4
20260506014240 66 301 0.0 0.0 0.00 0.00 0.00 70 1016.5
20260506013737 64 305 0.0 0.0 0.00 0.00 0.00 75 1016.4
20260506013235 64 296 0.0 1.0 0.00 0.00 0.00 73 1016.4
20260506012731 65 308 0.0 0.0 0.00 0.00 0.00 73 1016.2
20260506012228 65 288 0.0 0.0 0.00 0.00 0.00 72 1016.3
20260506011725 65 308 0.0 1.0 0.00 0.00 0.00 73 1016.1
20260506011221 65 313 2.0 2.0 0.00 0.00 0.00 72 1016.4
20260506010720 64 309 2.0 2.0 0.00 0.00 0.00 75 1016.3
20260506010217 64 305 0.0 0.0 0.00 0.00 0.00 74 1016.1
20260506005714 64 297 0.0 0.0 0.00 0.00 0.00 75 1016.2
20260506005211 64 306 1.0 1.0 0.00 0.00 0.00 75 1016.3
20260506004706 63 302 1.0 1.0 0.00 0.00 0.00 75 1016.0
20260506004204 64 305 1.0 1.0 0.00 0.00 0.00 74 1016.4
20260506003700 64 307 1.0 1.0 0.00 0.00 0.00 73 1016.3
20260506003157 64 306 0.0 0.0 0.00 0.00 0.00 75 1016.4
20260506002652 64 310 0.0 0.0 0.00 0.00 0.00 74 1016.3
20260506002149 64 314 0.0 0.0 0.00 0.00 0.00 75 1016.2
20260506001644 64 302 0.0 0.0 0.00 0.00 0.00 75 1016.2
20260506001142 64 303 0.0 1.0 0.00 0.00 0.00 75 1016.4
20260506000639 64 305 0.0 0.0 0.00 0.00 0.00 75 1016.4
20260506000136 64 312 1.0 1.0 0.00 0.00 0.00 75 1016.5
20260505235634 63 312 0.0 0.0 0.00 0.00 0.00 75 1016.5
20260505235131 63 307 1.0 1.0 0.00 0.00 0.00 74 1016.7
20260505234628 64 297 0.0 1.0 0.00 0.00 0.00 74 1016.6
20260505234125 64 305 0.0 0.0 0.00 0.00 0.00 75 1016.7
20260505233622 64 300 0.0 1.0 0.00 0.00 0.00 73 1016.6
20260505233120 64 300 0.0 1.0 0.00 0.00 0.00 74 1016.8
20260505232617 64 321 0.0 0.0 0.00 0.00 0.00 73 1016.6
20260505232115 64 295 1.0 1.0 0.00 0.00 0.00 73 1016.7
20260505231611 64 307 0.0 0.0 0.00 0.00 0.00 74 1016.7
20260505231110 63 323 1.0 1.0 0.00 0.00 0.00 74 1016.9
20260505230608 63 310 0.0 1.0 0.00 0.00 0.00 75 1016.7
20260505225600 63 302 1.0 2.0 0.00 0.00 0.00 74 1016.8
20260505225056 63 295 0.0 0.0 0.00 0.00 0.00 76 1016.7
20260505224553 63 302 1.0 1.0 0.00 0.00 0.00 75 1016.8